This demonstration page uses our WeatherBlox Daily Observations layout. Learn more.

40.92945, -100.16068

Hourly Observations for January 31, 2015

Temp ( °F °C ) Dew Point ( °F °C ) Humidity (%) Winds ( mph kmh ) Pressure ( in mb ) Visibility ( mi km ) Precip ( " mm )
12:15 am 00:15 Cloudy 37 2.5 33 0.8 89 89 S 9 15 30.21 1023 10 16.0934 N/A
12:35 am 00:35 Cloudy 36 2.4 33 0.8 89 89 S 12 19 30.21 1023 10 16.0934 N/A
12:55 am 00:55 Cloudy 36 2.1 33 0.6 90 90 S 9 15 30.21 1023 10 16.0934 N/A
1:15 am 01:15 Cloudy 36 2 33 0.6 91 91 S 10 17 30.18 1022 10 16.0934 N/A
1:35 am 01:35 Cloudy 35 1.8 33 0.5 91 91 S 10 17 30.18 1022 10 16.0934 N/A
1:55 am 01:55 Cloudy 35 1.7 33 0.5 92 92 S 12 19 30.18 1022 10 16.0934 N/A
2:15 am 02:15 Cloudy 35 1.7 33 0.4 91 91 S 9 15 30.18 1022 10 16.0934 N/A
2:35 am 02:35 Cloudy 35 1.5 32 0.2 91 91 S 12 19 30.15 1021 10 16.0934 N/A
2:55 am 02:55 Cloudy with Light Wintry Mix 35 1.5 32 0.2 91 91 S 8 13 30.15 1021 10 16.0934 N/A
3:15 am 03:15 Cloudy 34 1.3 32 0.2 92 92 S 8 13 30.12 1020 10 16.0934 N/A
3:35 am 03:35 Cloudy with Rain 34 1.2 32 0.1 92 92 S 9 15 30.12 1020 10 16.0934 N/A
3:55 am 03:55 Cloudy with Light Snow 34 1.2 32 0.2 93 93 S 9 15 30.12 1020 10 16.0934 N/A
4:15 am 04:15 Cloudy with Light Drizzle 34 1.2 33 0.3 94 94 S 9 15 30.12 1020 10 16.0934 N/A
4:35 am 04:35 Cloudy with Light Rain 34 1.1 32 0.2 94 94 S 7 11 30.12 1020 10 16.0934 N/A
4:55 am 04:55 Cloudy with Light Snow 34 1 32 0.1 94 94 SSE 7 11 30.12 1020 5 8.0467 N/A
5:15 am 05:15 Cloudy with Light Wintry Mix 34 1 32 0.1 94 94 S 8 13 30.12 1020 4 6.43736 N/A
5:35 am 05:35 Cloudy with Light Snow 33 0.8 32 0.1 95 95 S 7 11 30.12 1020 7 11.26538 N/A
5:55 am 05:55 Cloudy with Light Snow 33 0.8 32 0.1 95 95 SSE 10 17 30.12 1020 7 11.26538 N/A
6:15 am 06:15 Cloudy with Light Snow 33 0.8 32 0.1 95 95 S 9 15 30.12 1020 10 16.0934 N/A
6:35 am 06:35 Cloudy with Light Wintry Mix 33 0.8 32 0 94 94 S 8 13 30.12 1020 7 11.26538 N/A
6:55 am 06:55 Cloudy with Light Snow 33 0.8 32 0 94 94 SSE 5 7 30.12 1020 7 11.26538 N/A
7:15 am 07:15 Cloudy with Light Snow 33 0.7 32 0 95 95 SE 6 9 30.09 1019 5 8.0467 N/A
7:35 am 07:35 Cloudy with Light Snow 33 0.7 32 0 95 95 SE 8 13 30.09 1019 4 6.43736 N/A
7:55 am 07:55 Cloudy with Light Snow 33 0.7 32 0 95 95 SE 6 9 30.09 1019 5 8.0467 N/A
8:15 am 08:15 Cloudy 33 0.7 32 0 95 95 SE 6 9 30.09 1019 7 11.26538 N/A
8:35 am 08:35 Cloudy 33 0.7 32 0 95 95 SE 7 11 30.09 1019 10 16.0934 N/A
8:55 am 08:55 Cloudy with Light Snow 33 0.6 32 0 96 96 SSE 8 13 30.09 1019 5 8.0467 N/A
9:15 am 09:15 Cloudy 33 0.6 32 0 96 96 SSE 8 13 30.09 1019 10 16.0934 N/A
9:35 am 09:35 Cloudy with Mist and Fog 33 0.6 32 0 96 96 SSE 12 19 30.09 1019 3 4.82802 N/A
9:55 am 09:55 Cloudy with Mist and Fog 33 0.6 32 0 96 96 SSE 9 15 30.09 1019 1.5 2.41401 N/A
10:15 am 10:15 Cloudy with Mist and Fog 33 0.6 32 0 96 96 SSE 8 13 30.09 1019 1.25 2.011675 N/A
10:35 am 10:35 Cloudy with Mist and Fog 33 0.7 32 0.1 96 96 SE 8 13 30.09 1019 1.25 2.011675 N/A
10:55 am 10:55 Cloudy with Mist and Fog 33 0.8 33 0.3 97 97 SE 8 13 30.06 1018 1.25 2.011675 N/A
11:15 am 11:15 Cloudy with Mist and Fog 34 1 33 0.3 95 95 SE 7 11 30.06 1018 1.75 2.816345 N/A
11:35 am 11:35 Cloudy with Mist and Fog 34 0.9 33 0.3 96 96 SSE 9 15 30.06 1018 1.75 2.816345 N/A
11:55 am 11:55 Cloudy with Mist and Fog 34 1 33 0.4 96 96 SE 7 11 30.06 1018 2 3.21868 N/A
12:15 pm 12:15 Cloudy with Mist and Fog 34 1 33 0.3 95 95 SE 6 9 30.03 1017 1.75 2.816345 N/A
12:35 pm 12:35 Cloudy with Mist and Fog 34 1 33 0.4 96 96 SSE 7 11 30.03 1017 1.75 2.816345 N/A
12:55 pm 12:55 Cloudy with Light Drizzle 34 1.1 33 0.5 96 96 SE 6 9 30 1016 1.75 2.816345 N/A
1:15 pm 13:15 Cloudy with Mist and Fog 34 1.1 33 0.5 96 96 SE 6 9 30 1016 1.75 2.816345 N/A
1:35 pm 13:35 Cloudy with Mist and Fog 34 1.1 33 0.5 96 96 SE 8 13 29.97 1015 1.75 2.816345 N/A
1:55 pm 13:55 Cloudy with Light Rain 34 1.1 33 0.5 96 96 SE 6 9 29.97 1015 1.75 2.816345 N/A
2:15 pm 14:15 Cloudy with Light Snow 34 1 33 0.3 95 95 ESE 5 7 29.97 1015 1.75 2.816345 N/A
2:35 pm 14:35 Cloudy with Mist and Fog 34 1.1 33 0.5 96 96 ESE 5 7 29.94 1014 2.5 4.02335 N/A
2:55 pm 14:55 Cloudy with Mist and Fog 34 1 33 0.4 96 96 E 6 9 29.94 1014 2.5 4.02335 N/A
3:15 pm 15:15 Cloudy with Mist and Fog 34 1 33 0.3 95 95 E 5 7 29.94 1014 2 3.21868 N/A
3:35 pm 15:35 Cloudy with Light Snow 34 0.9 32 0.2 95 95 E 6 9 29.94 1014 2.5 4.02335 0.01 0.254
3:55 pm 15:55 Cloudy with Light Snow 33 0.8 32 0.2 96 96 E 6 9 29.94 1014 1.75 2.816345 0.01 0.254
4:15 pm 16:15 Cloudy with Light Snow 33 0.7 32 0.1 96 96 ENE 5 7 29.91 1013 1.25 2.011675 N/A
4:35 pm 16:35 Cloudy with Light Snow 33 0.5 32 0 96 96 ENE 5 7 29.94 1014 1 1.60934 0.01 0.254
4:55 pm 16:55 Cloudy with Light Snow 33 0.5 32 0 96 96 ENE 5 7 29.91 1013 1.25 2.011675 0.01 0.254
5:15 pm 17:15 Cloudy with Light Snow 33 0.5 32 0 96 96 NE 5 7 29.91 1013 1.75 2.816345 0.01 0.254
5:35 pm 17:35 Cloudy with Light Snow 33 0.5 32 0 96 96 NE 5 7 29.91 1013 1 1.60934 0.02 0.508
6:15 pm 18:15 Cloudy with Light Snow 33 0.5 32 0 96 96 NE 5 7 29.91 1013 2.5 4.02335 0.01 0.254
6:35 pm 18:35 Cloudy with Light Wintry Mix 33 0.3 32 0 98 98 NNE 6 9 29.91 1013 2.5 4.02335 0.02 0.508
6:55 pm 18:55 Cloudy with Light Snow 32 0.2 32 -0.1 98 98 NE 6 9 29.91 1013 2 3.21868 0.02 0.508
7:15 pm 19:15 Cloudy with Light Snow 32 0.2 32 0 99 99 NNE 6 9 29.91 1013 2 3.21868 0.01 0.254
7:35 pm 19:35 Cloudy with Light Snow 32 0.1 32 -0.1 99 99 NNE 7 11 29.91 1013 1.75 2.816345 0.02 0.508
7:55 pm 19:55 Cloudy with Light Snow 32 0.1 32 -0.1 99 99 NNE 6 9 29.91 1013 2 3.21868 0.02 0.508
8:15 pm 20:15 Cloudy with Light Snow 32 0 32 -0.2 99 99 NNE 6 9 29.91 1013 1.75 2.816345 0.01 0.254
8:35 pm 20:35 Cloudy with Snow 32 -0.1 31 -0.5 97 97 N 16 26 29.94 1014 1 1.60934 0.02 0.508
8:55 pm 20:55 Cloudy with Snow 30 -1 29 -1.5 96 96 N 13 20 29.97 1015 1 1.60934 0.02 0.508
9:15 pm 21:15 Cloudy with Light Snow 29 -1.6 28 -2.3 95 95 NNE 14 22 29.97 1015 1 1.60934 0.01 0.254
9:35 pm 21:35 Cloudy with Light Snow 29 -1.9 27 -2.8 94 94 NNE 16 26 29.97 1015 1.25 2.011675 0.01 0.254
9:55 pm 21:55 Windy with Snow Likely 27 -2.7 25 -3.7 93 93 N 20 31 30 1016 1.25 2.011675 0.01 0.254
10:15 pm 22:15 Windy with Snow Likely 26 -3.5 24 -4.5 93 93 N 21 33 30 1016 1.25 2.011675 N/A
10:35 pm 22:35 Windy with Snow Likely 25 -4 23 -5 93 93 N 21 33 30.03 1017 2 3.21868 N/A
10:55 pm 22:55 Windy with Snow Likely 25 -4.1 22 -5.4 91 91 N 23 37 30.03 1017 2 3.21868 N/A
11:15 pm 23:15 Windy with Snow Likely 24 -4.5 21 -6 89 89 N 22 35 30.03 1017 2.5 4.02335 N/A
11:35 pm 23:35 Windy with Snow Likely 23 -4.8 21 -6.3 89 89 N 22 35 30.06 1018 2 3.21868 N/A
11:55 pm 23:55 Windy with Snow Likely 23 -5 20 -6.5 89 89 N 22 35 30.06 1018 2 3.21868 0 0

Powered by AerisWeather